Regional Weather Roundup
Issued by NWS State College, PA

Home | Current Version | Previous Version | Graphics & Text | Print | Product List | Glossary Off
Versions: 1 2 3 4 5 6 7 8 9 10 11 12 13 14 15 16 17 18 19 20 21 22 23 24 25 26 27 28 29 30 31 32 33 34 35 36 37 38 39 40 41 42 43 44 45 46 47 48 49 50

000
ASUS41 KCTP 042103
RWRCTP

REGIONAL WEATHER ROUNDUP
NATIONAL WEATHER SERVICE STATE COLLEGE PA
500 PM EDT MON MAY 04 2015

Note: "fair" indicates few or no clouds below 12,000 feet with no
significant weather and/or obstructions to visibility.

* = STATION THAT DOES NOT REPORT PRECIPITATION /E.G. RAIN...SNOW...ETC/
    THUNDER OR FOG.

PAZ002>004-007>009-013>016-020>023-029>032-042200-
WESTERN PENNSYLVANIA

CITY           SKY/WX    TMP DP  RH WIND       PRES   REMARKS
ERIE           CLOUDY    65  54  67 SW13      30.12R
MEADVILLE      PTSUNNY   73  51  46 W10       30.13R
FRANKLIN*      PTSUNNY   77  46  33 SW16G23   30.14F
NEW CASTLE     FAIR      82  47  29 SW15G23   30.12F
BEAVER COUNTY  CLOUDY    79  48  34 SW12G18   30.14F
BUTLER*        PTSUNNY   79  48  34 W12G20    30.16S
PITTSBURGH INT CLOUDY    80  46  30 SW14G23   30.14F
PITTSBURGH     PTSUNNY   79  42  26 SW14      30.14F
INDIANA*       MOSUNNY   79  46  31 W17G25    30.17F
LATROBE        PTSUNNY   79  46  31 W14G23    30.16F
WASHINGTON CO* MOSUNNY   79  48  34 SW9       30.17F
$$

PAZ004>006-010>012-017>019-024>028-033>037-041-042-045-046-049>053-042200-
CENTRAL PENNSYLVANIA

CITY           SKY/WX    TMP DP  RH WIND       PRES   REMARKS
BRADFORD       CLOUDY    75  43  31 W13G20    30.13F
DUBOIS         PTSUNNY   77  43  29 SW13G26   30.14S
CLEARFIELD     PTSUNNY   80  44  27 SW15G22   30.13F
JOHNSTOWN      MOSUNNY   76  42  29 W9G23     30.18F
ALTOONA        PTSUNNY   81  42  25 SW14G24   30.15F
STATE COLLEGE  MOSUNNY   82  45  26 SW14G23   30.11F
WILLIAMSPORT   MOSUNNY   85  39  19 W9        30.06F
SELINSGROVE    MOSUNNY   80  46  30 SW8       30.09F
FT INDIANTOWN  SUNNY     84  44  24 SW15      30.11F
CAPITAL CITY   MOSUNNY   83  46  27 SW17G23   30.11F
HARRISBURG     MOSUNNY   83  46  27 SW9G20    30.11F
YORK           SUNNY     82  46  28 S10G21    30.13F
$$

PAZ038>040-043-044-047-048-054-055-060>062-067>071-042200-
EASTERN PENNSYLVANIA

CITY           SKY/WX    TMP DP  RH WIND       PRES   REMARKS
SCRANTON       SUNNY     83  39  21 SW16G28   30.10S
MOUNT POCONO   PTSUNNY   78  37  22 W17G23    30.16F
ALLENTOWN      MOSUNNY   84  43  23 SW16      30.11F
QUAKERTOWN*    CLEAR     82  45  26 SW14G23   30.15F
READING        MOSUNNY   84  45  25 S16G22    30.11F
LANCASTER      SUNNY     83  42  23 SW16      30.12F
COATESVILLE    CLEAR     81  45  28 S10G18    30.17S
POTTSTOWN      SUNNY     81  42  25 S12G21    30.16F
BLUE BELL      SUNNY     82  45  26 SW14G20   30.15S
DOYLESTOWN     SUNNY     81  39  22 SW10G21   30.13F
WILLOW GROVE   NOT AVBL
NORTH PHILA    SUNNY     84  39  20 SW13G23   30.16F
PHILADELPHIA   MOSUNNY   84  40  21 S15       30.16F
$$


USA.gov is the U.S. government's official web portal to all federal, state and local government web resources and services.